Location: Newark
(45.8667°N, 9.7333°E)
Time: 08:08:56
(UTC+00:00)

Transit 4A - Pass Details

Date: 31 January 2020
Orbit: 872 x 973 km, 66.8° (Epoch: 17 February)

Event Time Altitude Azimuth Distance (km) Brightness Sun altitude
Rises 07:01:50 0° 271° (W) 3,515 10.3 1.8°
Reaches altitude 10° 07:05:23 10° 292° (WNW) 2,560 9.6 2.3°
Maximum altitude 07:09:01 17° 331° (NNW) 2,118 9.3 2.9°
Drops below altitude 10° 07:12:39 10° 9° (N) 2,539 10.0 3.4°
Sets 07:16:10 0° 30° (NNE) 3,473 10.9 4.0°
